Time,TemperatureF,DewpointF,PressureIn,WindDirection,WindDirectionDegrees,WindSpeedMPH,WindSpeedGustMPH,Humidity,HourlyPrecipIn,Conditions,Clouds,dailyrainin,SoftwareType,DateUTC
2013-05-12 00:03:00,55.2,51.3,30.10,North,0,0.0,0.0,87,0.00,,,0.00,WUHU216HW,2013-05-12 04:03:00,
2013-05-12 00:08:00,55.0,51.1,30.11,NNW,338,0.0,0.0,87,0.00,,,0.00,WUHU216HW,2013-05-12 04:08:00,
2013-05-12 00:13:00,54.8,51.0,30.11,NW,315,0.0,0.0,87,0.00,,,0.00,WUHU216HW,2013-05-12 04:13:00,
2013-05-12 00:18:00,54.6,50.8,30.10,NW,315,0.0,0.0,87,0.00,,,0.00,WUHU216HW,2013-05-12 04:18:00,
2013-05-12 00:23:00,54.3,50.4,30.11,NW,315,0.0,0.0,87,0.00,,,0.00,WUHU216HW,2013-05-12 04:23:00,
2013-05-12 00:28:00,54.3,50.4,30.10,North,0,0.0,0.0,87,0.00,,,0.00,WUHU216HW,2013-05-12 04:28:00,
2013-05-12 00:33:00,54.1,50.3,30.11,NW,315,0.0,0.0,87,0.00,,,0.00,WUHU216HW,2013-05-12 04:33:00,
2013-05-12 00:38:00,53.9,50.1,30.10,West,270,0.0,0.0,87,0.00,,,0.00,WUHU216HW,2013-05-12 04:38:00,
2013-05-12 00:43:00,53.7,49.9,30.10,NW,315,0.0,0.0,87,0.00,,,0.00,WUHU216HW,2013-05-12 04:43:00,
2013-05-12 00:48:00,53.6,49.8,30.11,NW,315,0.0,0.0,87,0.00,,,0.00,WUHU216HW,2013-05-12 04:48:00,
2013-05-12 00:53:00,53.4,49.6,30.11,NW,315,0.0,0.0,87,0.00,,,0.00,WUHU216HW,2013-05-12 04:53:00,
2013-05-12 00:58:00,53.4,49.6,30.11,West,270,0.0,0.0,87,0.00,,,0.00,WUHU216HW,2013-05-12 04:58:00,
2013-05-12 01:03:00,53.2,49.1,30.10,NW,315,0.0,0.0,86,0.00,,,0.00,WUHU216HW,2013-05-12 05:03:00,
2013-05-12 01:08:00,52.8,48.7,30.11,NNW,338,0.0,0.0,86,0.00,,,0.00,WUHU216HW,2013-05-12 05:08:00,
2013-05-12 01:13:00,52.8,48.7,30.11,NW,315,0.0,0.0,86,0.00,,,0.00,WUHU216HW,2013-05-12 05:13:00,
2013-05-12 01:18:00,52.8,48.7,30.11,WNW,293,0.0,0.0,86,0.00,,,0.00,WUHU216HW,2013-05-12 05:18:00,
2013-05-12 01:23:00,52.7,48.9,30.11,WNW,293,0.0,0.0,87,0.00,,,0.00,WUHU216HW,2013-05-12 05:23:00,
2013-05-12 01:28:00,52.7,48.9,30.11,NW,315,0.0,0.0,87,0.00,,,0.00,WUHU216HW,2013-05-12 05:28:00,
2013-05-12 01:33:00,52.7,48.9,30.11,West,270,0.0,0.0,87,0.00,,,0.00,WUHU216HW,2013-05-12 05:33:00,
2013-05-12 01:38:00,52.7,48.9,30.10,NW,315,0.0,0.0,87,0.00,,,0.00,WUHU216HW,2013-05-12 05:38:00,
2013-05-12 01:43:00,52.7,48.5,30.11,North,0,0.0,0.0,86,0.00,,,0.00,WUHU216HW,2013-05-12 05:43:00,
2013-05-12 01:49:00,52.5,48.4,30.11,NW,315,0.0,0.0,86,0.00,,,0.00,WUHU216HW,2013-05-12 05:49:00,
2013-05-12 01:54:00,52.3,48.2,30.10,WNW,293,0.0,0.0,86,0.00,,,0.00,WUHU216HW,2013-05-12 05:54:00,
2013-05-12 01:59:00,52.3,48.2,30.10,NW,315,0.0,0.0,86,0.00,,,0.00,WUHU216HW,2013-05-12 05:59:00,
2013-05-12 02:04:00,52.1,48.0,30.11,WNW,293,0.0,0.0,86,0.00,,,0.00,WUHU216HW,2013-05-12 06:04:00,
2013-05-12 02:09:00,51.9,47.8,30.11,WNW,293,0.0,0.0,86,0.00,,,0.00,WUHU216HW,2013-05-12 06:09:00,
2013-05-12 02:14:00,51.8,47.6,30.11,North,0,0.0,0.0,86,0.00,,,0.00,WUHU216HW,2013-05-12 06:14:00,
2013-05-12 02:19:00,51.6,47.5,30.11,North,0,0.0,0.0,86,0.00,,,0.00,WUHU216HW,2013-05-12 06:19:00,
2013-05-12 02:24:00,51.6,47.5,30.10,North,0,0.0,0.0,86,0.00,,,0.00,WUHU216HW,2013-05-12 06:24:00,
2013-05-12 02:29:00,51.4,47.3,30.10,NW,315,0.0,0.0,86,0.00,,,0.00,WUHU216HW,2013-05-12 06:29:00,
2013-05-12 02:34:00,51.4,47.3,30.10,NNE,23,0.0,0.0,86,0.00,,,0.00,WUHU216HW,2013-05-12 06:34:00,
2013-05-12 02:39:00,51.0,46.9,30.10,NNW,338,0.0,0.0,86,0.00,,,0.00,WUHU216HW,2013-05-12 06:39:00,
2013-05-12 02:44:00,51.0,46.9,30.10,NNW,338,0.0,0.0,86,0.00,,,0.00,WUHU216HW,2013-05-12 06:44:00,
2013-05-12 02:49:00,50.7,46.9,30.10,North,0,0.0,0.0,87,0.00,,,0.00,WUHU216HW,2013-05-12 06:49:00,
2013-05-12 02:54:00,50.7,46.9,30.09,North,0,0.0,0.0,87,0.00,,,0.00,WUHU216HW,2013-05-12 06:54:00,
2013-05-12 02:59:00,50.5,46.7,30.10,WNW,293,0.0,0.0,87,0.00,,,0.00,WUHU216HW,2013-05-12 06:59:00,
2013-05-12 03:04:00,50.5,46.7,30.10,NNW,338,0.0,0.0,87,0.00,,,0.00,WUHU216HW,2013-05-12 07:04:00,
2013-05-12 03:09:00,50.3,46.5,30.09,North,0,0.0,0.0,87,0.00,,,0.00,WUHU216HW,2013-05-12 07:09:00,
2013-05-12 03:14:00,50.3,46.5,30.09,NW,315,0.0,0.0,87,0.00,,,0.00,WUHU216HW,2013-05-12 07:14:00,
2013-05-12 03:19:00,50.1,46.3,30.09,NW,315,0.0,0.0,87,0.00,,,0.00,WUHU216HW,2013-05-12 07:19:00,
2013-05-12 03:24:00,50.1,46.3,30.09,NW,315,0.0,0.0,87,0.00,,,0.00,WUHU216HW,2013-05-12 07:24:00,
2013-05-12 03:29:00,50.1,46.3,30.09,NNW,338,0.0,0.0,87,0.00,,,0.00,WUHU216HW,2013-05-12 07:29:00,
2013-05-12 03:34:00,50.1,46.3,30.09,NW,315,0.0,0.0,87,0.00,,,0.00,WUHU216HW,2013-05-12 07:34:00,
2013-05-12 03:39:00,50.1,46.3,30.09,NNW,338,0.0,0.0,87,0.00,,,0.00,WUHU216HW,2013-05-12 07:39:00,
2013-05-12 03:44:00,50.1,46.3,30.09,NNW,338,0.0,0.0,87,0.00,,,0.00,WUHU216HW,2013-05-12 07:44:00,
2013-05-12 03:49:00,50.1,46.3,30.09,NNW,338,0.0,0.0,87,0.00,,,0.00,WUHU216HW,2013-05-12 07:49:00,
2013-05-12 03:54:00,50.0,46.2,30.08,North,0,0.0,0.0,87,0.00,,,0.00,WUHU216HW,2013-05-12 07:54:00,
2013-05-12 03:59:00,50.0,46.2,30.09,NNW,338,0.0,0.0,87,0.00,,,0.00,WUHU216HW,2013-05-12 07:59:00,
2013-05-12 04:04:00,49.8,46.0,30.09,WNW,293,0.0,0.0,87,0.00,,,0.00,WUHU216HW,2013-05-12 08:04:00,
2013-05-12 04:09:00,49.8,46.0,30.09,WNW,293,0.0,0.0,87,0.00,,,0.00,WUHU216HW,2013-05-12 08:09:00,
2013-05-12 04:14:00,49.8,46.0,30.09,NW,315,0.0,0.0,87,0.00,,,0.00,WUHU216HW,2013-05-12 08:14:00,
2013-05-12 04:19:00,49.6,45.8,30.09,NW,315,0.0,0.0,87,0.00,,,0.00,WUHU216HW,2013-05-12 08:19:00,
2013-05-12 04:24:00,49.6,45.8,30.09,NW,315,0.0,0.0,87,0.00,,,0.00,WUHU216HW,2013-05-12 08:24:00,
2013-05-12 04:29:00,49.6,45.8,30.09,WNW,293,0.0,0.0,87,0.00,,,0.00,WUHU216HW,2013-05-12 08:29:00,
2013-05-12 04:34:00,49.6,45.8,30.10,NNW,338,0.0,0.0,87,0.00,,,0.00,WUHU216HW,2013-05-12 08:34:00,
2013-05-12 04:39:00,49.6,45.8,30.10,NNW,338,0.0,0.0,87,0.00,,,0.00,WUHU216HW,2013-05-12 08:39:00,
2013-05-12 04:44:00,49.6,46.1,30.09,NNW,338,0.0,0.0,88,0.00,,,0.00,WUHU216HW,2013-05-12 08:44:00,
2013-05-12 04:49:00,49.8,46.3,30.09,NW,315,0.0,0.0,88,0.00,,,0.00,WUHU216HW,2013-05-12 08:49:00,
2013-05-12 04:54:00,49.8,46.3,30.09,NW,315,0.0,0.0,88,0.00,,,0.00,WUHU216HW,2013-05-12 08:54:00,
2013-05-12 04:59:00,49.8,46.3,30.10,NW,315,0.0,0.0,88,0.00,,,0.00,WUHU216HW,2013-05-12 08:59:00,
2013-05-12 05:04:00,49.8,46.3,30.10,NW,315,0.0,0.0,88,0.00,,,0.00,WUHU216HW,2013-05-12 09:04:00,
2013-05-12 05:09:00,49.8,46.3,30.09,WNW,293,0.0,0.0,88,0.00,,,0.00,WUHU216HW,2013-05-12 09:09:00,
2013-05-12 05:14:00,50.1,46.6,30.09,WNW,293,0.0,0.0,88,0.00,,,0.00,WUHU216HW,2013-05-12 09:14:00,
2013-05-12 05:19:00,50.1,46.6,30.09,West,270,0.0,0.0,88,0.00,,,0.00,WUHU216HW,2013-05-12 09:19:00,
2013-05-12 05:24:00,50.1,46.6,30.09,West,270,0.0,0.0,88,0.00,,,0.00,WUHU216HW,2013-05-12 09:24:00,
2013-05-12 05:29:00,50.1,46.6,30.09,West,270,0.0,0.0,88,0.00,,,0.00,WUHU216HW,2013-05-12 09:29:00,
2013-05-12 05:34:00,50.1,46.6,30.09,SW,225,0.0,0.0,88,0.00,,,0.00,WUHU216HW,2013-05-12 09:34:00,
2013-05-12 05:39:00,50.1,46.6,30.09,WNW,293,0.0,0.0,88,0.00,,,0.00,WUHU216HW,2013-05-12 09:39:00,
2013-05-12 05:44:00,50.1,46.6,30.09,NNW,338,0.0,0.0,88,0.00,,,0.00,WUHU216HW,2013-05-12 09:44:00,
2013-05-12 05:49:00,50.1,46.6,30.09,North,0,0.0,0.0,88,0.00,,,0.00,WUHU216HW,2013-05-12 09:49:00,
2013-05-12 05:54:00,50.3,46.8,30.09,NNW,338,0.0,0.0,88,0.00,,,0.00,WUHU216HW,2013-05-12 09:54:00,
2013-05-12 05:59:00,50.3,46.8,30.10,NNW,338,0.0,0.0,88,0.00,,,0.00,WUHU216HW,2013-05-12 09:59:00,
2013-05-12 06:04:00,50.3,46.8,30.10,NNW,338,0.0,0.0,88,0.00,,,0.00,WUHU216HW,2013-05-12 10:04:00,
2013-05-12 06:09:00,50.5,47.0,30.10,NNW,338,0.0,0.0,88,0.00,,,0.00,WUHU216HW,2013-05-12 10:09:00,
2013-05-12 06:14:00,50.5,47.0,30.10,NNW,338,0.0,0.0,88,0.00,,,0.00,WUHU216HW,2013-05-12 10:14:00,
2013-05-12 06:19:00,50.5,47.0,30.10,NW,315,0.0,0.0,88,0.00,,,0.00,WUHU216HW,2013-05-12 10:19:00,
2013-05-12 06:24:00,50.5,47.0,30.11,NNW,338,0.0,0.0,88,0.00,,,0.00,WUHU216HW,2013-05-12 10:24:00,
2013-05-12 06:29:00,50.7,47.2,30.11,NW,315,0.0,0.0,88,0.00,,,0.00,WUHU216HW,2013-05-12 10:29:00,
2013-05-12 06:34:00,50.7,47.2,30.11,NW,315,0.0,0.0,88,0.00,,,0.00,WUHU216HW,2013-05-12 10:34:00,
2013-05-12 06:39:00,50.7,47.2,30.11,West,270,0.0,0.0,88,0.00,,,0.00,WUHU216HW,2013-05-12 10:39:00,
2013-05-12 06:44:00,50.7,47.2,30.11,WNW,293,0.0,0.0,88,0.00,,,0.00,WUHU216HW,2013-05-12 10:44:00,
2013-05-12 06:49:00,50.7,47.2,30.11,WNW,293,0.0,0.0,88,0.00,,,0.00,WUHU216HW,2013-05-12 10:49:00,
2013-05-12 06:54:00,50.7,47.2,30.11,WNW,293,0.0,0.0,88,0.00,,,0.00,WUHU216HW,2013-05-12 10:54:00,
2013-05-12 06:59:00,50.5,47.0,30.11,WNW,293,0.0,0.0,88,0.00,,,0.00,WUHU216HW,2013-05-12 10:59:00,
2013-05-12 07:04:00,50.5,47.0,30.11,WNW,293,0.0,0.0,88,0.00,,,0.00,WUHU216HW,2013-05-12 11:04:00,
2013-05-12 07:09:00,50.7,47.0,30.12,West,270,0.0,0.0,88,0.00,,,0.00,WUHU216HW,2013-05-12 11:09:00,
2013-05-12 07:14:00,50.7,47.2,30.12,West,270,0.0,0.0,88,0.00,,,0.00,WUHU216HW,2013-05-12 11:14:00,
2013-05-12 07:19:00,50.7,47.2,30.11,West,270,0.0,0.0,88,0.00,,,0.00,WUHU216HW,2013-05-12 11:19:00,
2013-05-12 07:24:00,50.7,47.2,30.11,NW,315,0.0,0.0,88,0.00,,,0.00,WUHU216HW,2013-05-12 11:24:00,
2013-05-12 07:29:00,50.9,47.4,30.11,NW,315,0.0,0.0,88,0.00,,,0.00,WUHU216HW,2013-05-12 11:29:00,
2013-05-12 07:34:00,51.0,47.5,30.12,NW,315,0.0,0.0,88,0.00,,,0.00,WUHU216HW,2013-05-12 11:34:00,
2013-05-12 07:39:00,51.0,47.5,30.12,NW,315,0.0,0.0,88,0.00,,,0.00,WUHU216HW,2013-05-12 11:39:00,
2013-05-12 07:44:00,51.4,47.9,30.13,SW,225,0.0,0.0,88,0.00,,,0.00,WUHU216HW,2013-05-12 11:44:00,
2013-05-12 07:49:00,51.4,47.9,30.13,WNW,293,0.0,0.0,88,0.00,,,0.00,WUHU216HW,2013-05-12 11:49:00,
2013-05-12 07:54:00,51.4,47.6,30.13,NW,315,0.0,0.0,87,0.00,,,0.00,WUHU216HW,2013-05-12 11:54:00,
2013-05-12 07:59:00,51.6,47.8,30.13,NNW,338,0.0,0.0,87,0.00,,,0.00,WUHU216HW,2013-05-12 11:59:00,
2013-05-12 08:04:00,51.6,47.5,30.13,NNW,338,0.0,0.0,86,0.00,,,0.00,WUHU216HW,2013-05-12 12:04:00,
2013-05-12 08:09:00,51.6,47.5,30.13,NNW,338,0.0,0.0,86,0.00,,,0.00,WUHU216HW,2013-05-12 12:09:00,
2013-05-12 08:14:00,51.6,47.2,30.13,NNW,338,0.0,0.0,85,0.00,,,0.00,WUHU216HW,2013-05-12 12:14:00,
2013-05-12 08:19:00,51.4,46.7,30.13,North,0,0.0,0.0,84,0.00,,,0.00,WUHU216HW,2013-05-12 12:19:00,
2013-05-12 08:24:00,51.2,46.5,30.13,NNW,338,0.0,0.0,84,0.00,,,0.00,WUHU216HW,2013-05-12 12:24:00,
2013-05-12 08:29:00,50.9,45.8,30.13,NNW,338,0.0,0.0,83,0.00,,,0.00,WUHU216HW,2013-05-12 12:29:00,
2013-05-12 08:34:00,50.9,45.5,30.14,NW,315,0.0,0.0,82,0.00,,,0.00,WUHU216HW,2013-05-12 12:34:00,
2013-05-12 08:39:00,50.7,45.3,30.14,WSW,248,0.0,0.0,82,0.00,,,0.00,WUHU216HW,2013-05-12 12:39:00,
2013-05-12 08:44:00,50.7,45.3,30.14,NNW,338,0.0,0.0,82,0.00,,,0.00,WUHU216HW,2013-05-12 12:44:00,
2013-05-12 08:49:00,50.7,45.3,30.15,NNW,338,0.0,0.0,82,0.00,,,0.00,WUHU216HW,2013-05-12 12:49:00,
2013-05-12 08:54:00,50.7,45.0,30.15,NW,315,0.0,0.0,81,0.00,,,0.00,WUHU216HW,2013-05-12 12:54:00,
2013-05-12 08:59:00,50.7,44.7,30.15,East,90,0.0,0.0,80,0.00,,,0.00,WUHU216HW,2013-05-12 12:59:00,
2013-05-12 09:04:00,50.7,44.4,30.15,NW,315,0.0,0.0,79,0.00,,,0.00,WUHU216HW,2013-05-12 13:04:00,
2013-05-12 09:09:00,50.5,44.2,30.15,WNW,293,0.0,0.0,79,0.00,,,0.00,WUHU216HW,2013-05-12 13:09:00,
2013-05-12 09:14:00,50.5,43.9,30.15,NNW,338,0.0,0.0,78,0.00,,,0.00,WUHU216HW,2013-05-12 13:14:00,
2013-05-12 09:19:00,50.5,43.5,30.15,NW,315,0.0,0.0,77,0.00,,,0.00,WUHU216HW,2013-05-12 13:19:00,
2013-05-12 09:24:00,50.5,43.2,30.15,NNW,338,0.0,0.0,76,0.00,,,0.00,WUHU216HW,2013-05-12 13:24:00,
2013-05-12 09:29:00,50.5,43.2,30.15,WSW,248,0.0,0.0,76,0.00,,,0.00,WUHU216HW,2013-05-12 13:29:00,
2013-05-12 09:34:00,50.7,43.4,30.15,NNW,338,0.0,0.0,76,0.00,,,0.00,WUHU216HW,2013-05-12 13:34:00,
2013-05-12 09:39:00,50.7,43.4,30.15,North,0,0.0,0.0,76,0.00,,,0.00,WUHU216HW,2013-05-12 13:39:00,
2013-05-12 09:44:00,50.7,43.4,30.15,NNW,338,0.0,0.0,76,0.00,,,0.00,WUHU216HW,2013-05-12 13:44:00,
2013-05-12 09:49:00,50.9,43.5,30.15,NNW,338,0.0,0.0,76,0.00,,,0.00,WUHU216HW,2013-05-12 13:49:00,
2013-05-12 09:54:00,51.0,43.7,30.15,NNW,338,0.0,0.0,76,0.00,,,0.00,WUHU216HW,2013-05-12 13:54:00,
2013-05-12 09:59:00,51.4,43.7,30.15,North,0,0.0,0.0,76,0.00,,,0.00,WUHU216HW,2013-05-12 13:59:00,
2013-05-12 10:04:00,51.6,44.3,30.15,North,0,0.0,0.0,76,0.00,,,0.00,WUHU216HW,2013-05-12 14:04:00,
2013-05-12 10:09:00,51.6,43.9,30.15,NW,315,0.0,0.0,75,0.00,,,0.00,WUHU216HW,2013-05-12 14:09:00,
2013-05-12 10:14:00,51.8,43.4,30.15,NNW,338,0.0,0.0,73,0.00,,,0.00,WUHU216HW,2013-05-12 14:14:00,
2013-05-12 10:19:00,52.1,43.7,30.15,NNW,338,0.0,0.0,73,0.00,,,0.00,WUHU216HW,2013-05-12 14:19:00,
2013-05-12 10:24:00,51.9,43.2,30.15,NNW,338,0.0,0.0,72,0.00,,,0.00,WUHU216HW,2013-05-12 14:24:00,
2013-05-12 10:29:00,52.1,43.7,30.15,NW,315,0.0,0.0,73,0.00,,,0.00,WUHU216HW,2013-05-12 14:29:00,
2013-05-12 10:34:00,52.3,43.9,30.15,NNW,338,0.0,0.0,73,0.00,,,0.00,WUHU216HW,2013-05-12 14:34:00,
2013-05-12 10:39:00,52.3,43.9,30.15,NNW,338,0.0,0.0,73,0.00,,,0.00,WUHU216HW,2013-05-12 14:39:00,
2013-05-12 10:44:00,52.5,44.1,30.15,NNW,338,0.0,0.0,73,0.00,,,0.00,WUHU216HW,2013-05-12 14:44:00,
2013-05-12 10:49:00,52.8,44.1,30.15,WNW,293,0.0,0.0,72,0.00,,,0.00,WUHU216HW,2013-05-12 14:49:00,
2013-05-12 10:54:00,53.0,44.4,30.15,NW,315,0.0,0.0,73,0.00,,,0.00,WUHU216HW,2013-05-12 14:54:00,
2013-05-12 10:59:00,53.2,44.4,30.15,NNW,338,0.0,0.0,72,0.00,,,0.00,WUHU216HW,2013-05-12 14:59:00,
2013-05-12 11:04:00,53.4,44.2,30.15,NNW,338,0.0,0.0,71,0.00,,,0.00,WUHU216HW,2013-05-12 15:04:00,
2013-05-12 11:09:00,53.4,44.2,30.16,NNW,338,0.0,0.0,71,0.00,,,0.00,WUHU216HW,2013-05-12 15:09:00,
2013-05-12 11:14:00,53.4,44.2,30.16,NNW,338,0.0,0.0,71,0.00,,,0.00,WUHU216HW,2013-05-12 15:14:00,
2013-05-12 11:19:00,53.7,44.2,30.16,NW,315,0.0,0.0,70,0.00,,,0.00,WUHU216HW,2013-05-12 15:19:00,
2013-05-12 11:25:00,54.3,44.1,30.16,NNW,338,0.0,0.0,69,0.00,,,0.00,WUHU216HW,2013-05-12 15:25:00,
2013-05-12 11:30:00,54.6,43.9,30.16,North,0,0.0,0.0,67,0.00,,,0.00,WUHU216HW,2013-05-12 15:30:00,
2013-05-12 11:35:00,55.0,43.4,30.16,North,0,0.0,0.0,65,0.00,,,0.00,WUHU216HW,2013-05-12 15:35:00,
2013-05-12 11:40:00,55.2,42.3,30.16,NNW,338,0.0,0.0,62,0.00,,,0.00,WUHU216HW,2013-05-12 15:40:00,
2013-05-12 11:45:00,55.4,42.5,30.16,NNW,338,0.0,0.0,62,0.00,,,0.00,WUHU216HW,2013-05-12 15:45:00,
2013-05-12 11:50:00,55.5,42.2,30.16,NW,315,0.0,0.0,61,0.00,,,0.00,WUHU216HW,2013-05-12 15:50:00,
2013-05-12 11:55:00,55.2,41.9,30.16,West,270,0.0,0.0,61,0.00,,,0.00,WUHU216HW,2013-05-12 15:55:00,
2013-05-12 12:00:00,55.7,43.7,30.17,West,270,0.0,0.0,64,0.00,,,0.00,WUHU216HW,2013-05-12 16:00:00,
2013-05-12 12:05:00,56.1,42.8,30.17,WNW,293,0.0,0.0,61,0.00,,,0.00,WUHU216HW,2013-05-12 16:05:00,
2013-05-12 12:10:00,56.3,43.4,30.17,NW,315,0.0,0.0,62,0.00,,,0.00,WUHU216HW,2013-05-12 16:10:00,
2013-05-12 12:15:00,56.6,44.1,30.16,West,270,0.0,0.0,63,0.00,,,0.00,WUHU216HW,2013-05-12 16:15:00,
2013-05-12 12:20:00,56.8,44.3,30.16,West,270,0.0,0.0,63,0.00,,,0.00,WUHU216HW,2013-05-12 16:20:00,
2013-05-12 12:25:00,57.0,44.1,30.17,NNW,338,0.0,0.0,61,0.00,,,0.00,WUHU216HW,2013-05-12 16:25:00,
2013-05-12 12:30:00,57.3,44.4,30.17,NW,315,0.0,0.0,62,0.00,,,0.00,WUHU216HW,2013-05-12 16:30:00,
2013-05-12 12:35:00,57.5,44.2,30.16,North,0,0.0,0.0,61,0.00,,,0.00,WUHU216HW,2013-05-12 16:35:00,
2013-05-12 12:40:00,57.7,44.7,30.17,NNW,338,0.0,0.0,62,0.00,,,0.00,WUHU216HW,2013-05-12 16:40:00,
2013-05-12 12:45:00,58.4,45.4,30.16,WSW,248,0.0,0.0,62,0.00,,,0.00,WUHU216HW,2013-05-12 16:45:00,
2013-05-12 12:50:00,58.8,44.0,30.17,NNW,338,0.0,0.0,58,0.00,,,0.00,WUHU216HW,2013-05-12 16:50:00,
2013-05-12 12:55:00,58.8,44.0,30.16,East,90,0.0,0.0,60,0.00,,,0.00,WUHU216HW,2013-05-12 16:55:00,
2013-05-12 13:00:00,58.8,43.5,30.16,NNW,338,0.0,0.0,57,0.00,,,0.00,WUHU216HW,2013-05-12 17:00:00,
2013-05-12 13:05:00,58.8,44.0,30.16,North,0,0.0,0.0,58,0.00,,,0.00,WUHU216HW,2013-05-12 17:05:00,
2013-05-12 13:10:00,58.8,44.5,30.16,West,270,0.0,0.0,59,0.00,,,0.00,WUHU216HW,2013-05-12 17:10:00,
2013-05-12 13:15:00,58.8,44.9,30.16,NW,315,0.0,0.0,60,0.00,,,0.00,WUHU216HW,2013-05-12 17:15:00,
2013-05-12 13:20:00,59.5,45.1,30.16,WNW,293,0.0,0.0,59,0.00,,,0.00,WUHU216HW,2013-05-12 17:20:00,
2013-05-12 13:25:00,59.9,45.5,30.16,NW,315,0.0,0.0,59,0.00,,,0.00,WUHU216HW,2013-05-12 17:25:00,
2013-05-12 13:30:00,60.2,45.9,30.17,NNW,338,0.0,0.0,59,0.00,,,0.00,WUHU216HW,2013-05-12 17:30:00,
2013-05-12 13:35:00,60.4,45.6,30.16,NNW,338,0.0,0.0,58,0.00,,,0.00,WUHU216HW,2013-05-12 17:35:00,
2013-05-12 13:40:00,60.8,45.7,30.17,NNW,338,0.0,0.0,58,0.00,,,0.00,WUHU216HW,2013-05-12 17:40:00,
2013-05-12 13:45:00,61.1,45.8,30.16,NNW,338,0.0,0.0,57,0.00,,,0.00,WUHU216HW,2013-05-12 17:45:00,
2013-05-12 13:50:00,61.3,45.4,30.16,WNW,293,0.0,0.0,56,0.00,,,0.00,WUHU216HW,2013-05-12 17:50:00,
2013-05-12 13:55:00,61.5,45.6,30.16,WSW,248,0.0,0.0,56,0.00,,,0.00,WUHU216HW,2013-05-12 17:55:00,
2013-05-12 14:00:00,61.5,44.6,30.17,WSW,248,0.0,0.0,54,0.00,,,0.00,WUHU216HW,2013-05-12 18:00:00,
2013-05-12 14:05:00,61.7,44.8,30.16,WSW,248,0.0,0.0,54,0.00,,,0.00,WUHU216HW,2013-05-12 18:05:00,
2013-05-12 14:10:00,62.2,44.3,30.16,WSW,248,0.0,0.0,52,0.00,,,0.00,WUHU216HW,2013-05-12 18:10:00,
2013-05-12 14:15:00,62.4,45.4,30.16,WSW,248,0.0,0.0,54,0.32,,,0.12,WUHU216HW,2013-05-12 18:15:00,
2013-05-12 14:20:00,62.7,44.8,30.16,WSW,248,0.0,0.0,52,0.32,,,0.32,WUHU216HW,2013-05-12 18:20:00,
2013-05-12 14:25:00,62.9,44.9,30.16,WSW,248,0.0,0.0,52,0.39,,,0.38,WUHU216HW,2013-05-12 18:25:00,
2013-05-12 14:30:00,63.1,45.1,30.16,WSW,248,0.0,0.0,52,0.39,,,0.38,WUHU216HW,2013-05-12 18:30:00,
2013-05-12 14:35:00,63.3,45.8,30.16,WSW,248,0.0,0.0,53,0.39,,,0.38,WUHU216HW,2013-05-12 18:35:00,
2013-05-12 14:40:00,63.6,45.6,30.16,WSW,248,0.0,0.0,52,0.39,,,0.38,WUHU216HW,2013-05-12 18:40:00,
2013-05-12 14:45:00,64.0,45.4,30.16,WSW,248,0.0,0.0,51,0.39,,,0.38,WUHU216HW,2013-05-12 18:45:00,
2013-05-12 14:50:00,64.2,46.1,30.16,WSW,248,0.0,0.0,52,0.39,,,0.38,WUHU216HW,2013-05-12 18:50:00,
2013-05-12 14:55:00,64.7,46.1,30.16,WSW,248,0.0,0.0,51,0.39,,,0.38,WUHU216HW,2013-05-12 18:55:00,
2013-05-12 15:00:00,64.9,45.2,30.16,WSW,248,0.0,0.0,49,0.39,,,0.38,WUHU216HW,2013-05-12 19:00:00,
2013-05-12 15:05:00,65.1,45.4,30.16,WSW,248,0.0,0.0,49,0.39,,,0.38,WUHU216HW,2013-05-12 19:05:00,
2013-05-12 15:10:00,65.3,43.8,30.16,WSW,248,0.0,0.0,46,0.26,,,0.38,WUHU216HW,2013-05-12 19:10:00,
2013-05-12 15:15:00,65.1,44.8,30.16,WSW,248,0.0,0.0,48,0.06,,,0.38,WUHU216HW,2013-05-12 19:15:00,
2013-05-12 15:20:00,65.3,45.0,30.16,WSW,248,0.0,0.0,48,0.00,,,0.38,WUHU216HW,2013-05-12 19:20:00,
2013-05-12 15:25:00,65.6,45.3,30.16,WSW,248,0.0,0.0,48,0.02,,,0.40,WUHU216HW,2013-05-12 19:25:00,
2013-05-12 15:30:00,66.0,44.5,30.16,WSW,248,0.0,0.0,46,0.02,,,0.40,WUHU216HW,2013-05-12 19:30:00,
2013-05-12 15:35:00,66.2,45.3,30.16,WSW,248,0.0,0.0,47,0.02,,,0.40,WUHU216HW,2013-05-12 19:35:00,
2013-05-12 15:40:00,66.3,45.5,30.16,WSW,248,0.0,0.0,47,0.02,,,0.40,WUHU216HW,2013-05-12 19:40:00,
2013-05-12 15:45:00,66.7,45.2,30.16,WSW,248,0.0,0.0,46,0.02,,,0.40,WUHU216HW,2013-05-12 19:45:00,
2013-05-12 15:50:00,67.1,44.9,30.16,WSW,248,0.0,0.0,45,0.02,,,0.40,WUHU216HW,2013-05-12 19:50:00,
2013-05-12 15:55:00,66.7,44.0,30.16,WSW,248,0.0,0.0,44,0.02,,,0.40,WUHU216HW,2013-05-12 19:55:00,
2013-05-12 16:00:00,66.3,42.5,30.16,WSW,248,0.0,0.0,42,0.02,,,0.40,WUHU216HW,2013-05-12 20:00:00,
2013-05-12 16:05:00,66.0,42.1,30.16,WSW,248,0.0,0.0,42,0.02,,,0.40,WUHU216HW,2013-05-12 20:05:00,
2013-05-12 16:10:00,66.0,43.9,30.16,WSW,248,0.0,0.0,45,0.02,,,0.40,WUHU216HW,2013-05-12 20:10:00,
2013-05-12 16:15:00,66.0,43.9,30.16,WSW,248,0.0,0.0,45,0.02,,,0.40,WUHU216HW,2013-05-12 20:15:00,
2013-05-12 16:20:00,66.5,44.4,30.16,WSW,248,0.0,0.0,44,0.02,,,0.40,WUHU216HW,2013-05-12 20:20:00,
2013-05-12 16:25:00,66.3,43.1,30.16,WSW,248,0.0,0.0,43,0.00,,,0.40,WUHU216HW,2013-05-12 20:25:00,
2013-05-12 16:30:00,66.0,41.5,30.16,WSW,248,0.0,0.0,41,0.00,,,0.40,WUHU216HW,2013-05-12 20:30:00,
2013-05-12 16:35:00,66.0,42.9,30.16,WSW,248,0.0,0.0,44,0.00,,,0.40,WUHU216HW,2013-05-12 20:35:00,
2013-05-12 16:40:00,66.3,43.1,30.15,WSW,248,0.0,0.0,43,0.00,,,0.40,WUHU216HW,2013-05-12 20:40:00,
2013-05-12 16:45:00,66.5,43.2,30.15,WSW,248,0.0,0.0,43,0.00,,,0.40,WUHU216HW,2013-05-12 20:45:00,
2013-05-12 16:50:00,66.3,43.1,30.15,WSW,248,0.0,0.0,43,0.00,,,0.40,WUHU216HW,2013-05-12 20:50:00,
2013-05-12 16:55:00,66.3,42.5,30.15,WSW,248,0.0,0.0,42,0.00,,,0.40,WUHU216HW,2013-05-12 20:55:00,
2013-05-12 17:00:00,66.3,42.5,30.16,WSW,248,0.0,0.0,42,0.00,,,0.40,WUHU216HW,2013-05-12 21:00:00,
2013-05-12 17:05:00,66.0,42.1,30.16,WSW,248,0.0,0.0,42,0.00,,,0.40,WUHU216HW,2013-05-12 21:05:00,
2013-05-12 17:10:00,66.3,42.5,30.16,WSW,248,0.0,0.0,42,0.00,,,0.40,WUHU216HW,2013-05-12 21:10:00,
2013-05-12 17:15:00,66.3,42.5,30.16,WSW,248,0.0,0.0,42,0.00,,,0.40,WUHU216HW,2013-05-12 21:15:00,
2013-05-12 17:20:00,65.4,42.2,30.16,WSW,248,0.0,0.0,43,0.00,,,0.40,WUHU216HW,2013-05-12 21:20:00,
2013-05-12 17:25:00,65.8,42.6,30.17,WSW,248,0.0,0.0,43,0.00,,,0.40,WUHU216HW,2013-05-12 21:25:00,
2013-05-12 17:30:00,66.5,42.8,30.17,WSW,248,0.0,0.0,42,0.00,,,0.40,WUHU216HW,2013-05-12 21:30:00,
2013-05-12 17:35:00,66.9,43.0,30.17,WSW,248,0.0,0.0,42,0.00,,,0.40,WUHU216HW,2013-05-12 21:35:00,
2013-05-12 17:40:00,67.4,42.9,30.17,WSW,248,0.0,0.0,41,0.00,,,0.40,WUHU216HW,2013-05-12 21:40:00,
2013-05-12 17:45:00,67.2,41.4,30.17,WSW,248,0.0,0.0,39,0.00,,,0.40,WUHU216HW,2013-05-12 21:45:00,
2013-05-12 17:50:00,67.1,41.2,30.17,WSW,248,0.0,0.0,39,0.00,,,0.40,WUHU216HW,2013-05-12 21:50:00,
2013-05-12 17:55:00,66.7,40.9,30.17,WSW,248,0.0,0.0,39,0.00,,,0.40,WUHU216HW,2013-05-12 21:55:00,
2013-05-12 18:00:00,66.5,41.5,30.17,WSW,248,0.0,0.0,40,0.00,,,0.40,WUHU216HW,2013-05-12 22:00:00,
2013-05-12 18:05:00,66.5,40.7,30.17,WSW,248,0.0,0.0,39,0.00,,,0.40,WUHU216HW,2013-05-12 22:05:00,
2013-05-12 18:10:00,66.3,40.6,30.18,WSW,248,0.0,0.0,39,0.00,,,0.40,WUHU216HW,2013-05-12 22:10:00,
2013-05-12 18:15:00,66.3,41.3,30.17,WSW,248,0.0,0.0,40,0.00,,,0.40,WUHU216HW,2013-05-12 22:15:00,
2013-05-12 18:20:00,66.9,43.0,30.17,WSW,248,0.0,0.0,42,0.00,,,0.40,WUHU216HW,2013-05-12 22:20:00,
2013-05-12 18:25:00,66.9,41.8,30.17,WSW,248,0.0,0.0,40,0.00,,,0.40,WUHU216HW,2013-05-12 22:25:00,
2013-05-12 18:30:00,66.3,41.5,30.18,WSW,248,0.0,0.0,40,0.00,,,0.40,WUHU216HW,2013-05-12 22:30:00,
2013-05-12 18:35:00,65.8,40.8,30.18,WSW,248,0.0,0.0,40,0.00,,,0.40,WUHU216HW,2013-05-12 22:35:00,
2013-05-12 18:40:00,64.7,39.8,30.17,WSW,248,0.0,0.0,40,0.00,,,0.40,WUHU216HW,2013-05-12 22:40:00,
2013-05-12 18:45:00,63.5,39.3,30.17,WSW,248,0.0,0.0,41,0.00,,,0.40,WUHU216HW,2013-05-12 22:45:00,
2013-05-12 18:50:00,62.6,38.5,30.18,WSW,248,0.0,0.0,41,0.00,,,0.40,WUHU216HW,2013-05-12 22:50:00,
2013-05-12 18:55:00,61.8,38.4,30.18,WSW,248,0.0,0.0,42,0.00,,,0.40,WUHU216HW,2013-05-12 22:55:00,
2013-05-12 19:00:00,61.3,38.2,30.18,WSW,248,0.0,0.0,43,0.00,,,0.40,WUHU216HW,2013-05-12 23:00:00,
2013-05-12 19:05:00,60.6,37.3,30.18,WSW,248,0.0,0.0,42,0.00,,,0.40,WUHU216HW,2013-05-12 23:05:00,
2013-05-12 19:10:00,59.9,37.2,30.18,NNW,338,0.0,0.0,43,0.00,,,0.40,WUHU216HW,2013-05-12 23:10:00,
2013-05-12 19:15:00,59.5,36.9,30.18,NW,315,0.0,0.0,43,0.00,,,0.40,WUHU216HW,2013-05-12 23:15:00,
2013-05-12 19:20:00,58.8,36.2,30.18,NNW,338,0.0,0.0,43,0.00,,,0.40,WUHU216HW,2013-05-12 23:20:00,
2013-05-12 19:25:00,58.4,35.9,30.18,WSW,248,0.0,0.0,43,0.00,,,0.40,WUHU216HW,2013-05-12 23:25:00,
2013-05-12 19:30:00,57.7,35.4,30.18,NW,315,0.0,0.0,43,0.00,,,0.40,WUHU216HW,2013-05-12 23:30:00,
2013-05-12 19:35:00,57.3,34.9,30.18,NW,315,0.0,0.0,43,0.00,,,0.40,WUHU216HW,2013-05-12 23:35:00,
2013-05-12 19:40:00,57.0,35.2,30.19,NNW,338,0.0,0.0,44,0.00,,,0.40,WUHU216HW,2013-05-12 23:40:00,
2013-05-12 19:45:00,56.8,35.0,30.19,WNW,293,0.0,0.0,44,0.00,,,0.40,WUHU216HW,2013-05-12 23:45:00,
2013-05-12 19:50:00,56.3,34.5,30.19,WNW,293,0.0,0.0,44,0.00,,,0.40,WUHU216HW,2013-05-12 23:50:00,
2013-05-12 19:55:00,56.1,34.9,30.19,NNW,338,0.0,0.0,45,0.00,,,0.40,WUHU216HW,2013-05-12 23:55:00,
2013-05-12 20:00:00,55.9,34.7,30.19,WNW,293,0.0,0.0,45,0.00,,,0.40,WUHU216HW,2013-05-13 00:00:00,
2013-05-12 20:05:00,55.7,35.1,30.19,NW,315,0.0,0.0,46,0.00,,,0.40,WUHU216HW,2013-05-13 00:05:00,
2013-05-12 20:10:00,55.4,34.2,30.19,NW,315,0.0,0.0,45,0.00,,,0.40,WUHU216HW,2013-05-13 00:10:00,
2013-05-12 20:15:00,55.2,35.2,30.19,West,270,0.0,0.0,46,0.00,,,0.40,WUHU216HW,2013-05-13 00:15:00,
2013-05-12 20:20:00,54.8,34.8,30.19,WNW,293,0.0,0.0,47,0.00,,,0.40,WUHU216HW,2013-05-13 00:20:00,
2013-05-12 20:25:00,54.5,34.5,30.19,WNW,293,0.0,0.0,47,0.00,,,0.40,WUHU216HW,2013-05-13 00:25:00,
2013-05-12 20:30:00,54.1,34.2,30.19,WNW,293,0.0,0.0,47,0.00,,,0.40,WUHU216HW,2013-05-13 00:30:00,
2013-05-12 20:35:00,53.7,34.4,30.19,WNW,293,0.0,0.0,48,0.00,,,0.40,WUHU216HW,2013-05-13 00:35:00,
2013-05-12 20:40:00,53.6,34.3,30.19,WNW,293,0.0,0.0,48,0.00,,,0.40,WUHU216HW,2013-05-13 00:40:00,
2013-05-12 20:46:00,53.4,34.5,30.19,WNW,293,0.0,0.0,49,0.00,,,0.40,WUHU216HW,2013-05-13 00:46:00,
2013-05-12 20:51:00,52.8,34.2,30.20,WNW,293,0.0,0.0,49,0.00,,,0.40,WUHU216HW,2013-05-13 00:51:00,
2013-05-12 20:56:00,52.5,34.4,30.20,WNW,293,0.0,0.0,50,0.00,,,0.40,WUHU216HW,2013-05-13 00:56:00,
2013-05-12 21:01:00,51.9,33.9,30.19,WNW,293,0.0,0.0,50,0.00,,,0.40,WUHU216HW,2013-05-13 01:01:00,
2013-05-12 21:06:00,51.6,34.0,30.19,WNW,293,0.0,0.0,51,0.00,,,0.40,WUHU216HW,2013-05-13 01:06:00,
2013-05-12 21:11:00,51.4,33.9,30.19,WNW,293,0.0,0.0,51,0.00,,,0.40,WUHU216HW,2013-05-13 01:11:00,
2013-05-12 21:16:00,50.9,33.8,30.19,WNW,293,0.0,0.0,52,0.00,,,0.40,WUHU216HW,2013-05-13 01:16:00,
2013-05-12 21:21:00,50.3,33.4,30.20,WNW,293,0.0,0.0,52,0.00,,,0.40,WUHU216HW,2013-05-13 01:21:00,
2013-05-12 21:26:00,50.1,33.6,30.20,WNW,293,0.0,0.0,53,0.00,,,0.40,WUHU216HW,2013-05-13 01:26:00,
2013-05-12 21:31:00,49.6,33.1,30.20,WNW,293,0.0,0.0,53,0.00,,,0.40,WUHU216HW,2013-05-13 01:31:00,
2013-05-12 21:36:00,49.1,33.1,30.21,WNW,293,0.0,0.0,54,0.00,,,0.40,WUHU216HW,2013-05-13 01:36:00,
2013-05-12 21:41:00,48.9,33.4,30.21,WNW,293,0.0,0.0,55,0.00,,,0.40,WUHU216HW,2013-05-13 01:41:00,
2013-05-12 21:46:00,48.3,33.3,30.21,WNW,293,0.0,0.0,56,0.00,,,0.40,WUHU216HW,2013-05-13 01:46:00,
2013-05-12 21:51:00,48.0,33.4,30.22,WNW,293,0.0,0.0,57,0.00,,,0.40,WUHU216HW,2013-05-13 01:51:00,
2013-05-12 21:56:00,47.8,33.2,30.22,WNW,293,0.0,0.0,57,0.00,,,0.40,WUHU216HW,2013-05-13 01:56:00,
2013-05-12 22:01:00,47.4,32.9,30.22,WNW,293,0.0,0.0,57,0.00,,,0.40,WUHU216HW,2013-05-13 02:01:00,
2013-05-12 22:06:00,47.1,33.0,30.22,WNW,293,0.0,0.0,58,0.00,,,0.40,WUHU216HW,2013-05-13 02:06:00,
2013-05-12 22:11:00,46.9,32.8,30.22,WNW,293,0.0,0.0,58,0.00,,,0.40,WUHU216HW,2013-05-13 02:11:00,
2013-05-12 22:16:00,46.5,32.9,30.22,WNW,293,0.0,0.0,59,0.00,,,0.40,WUHU216HW,2013-05-13 02:16:00,
2013-05-12 22:21:00,46.2,32.6,30.22,WNW,293,0.0,0.0,59,0.00,,,0.40,WUHU216HW,2013-05-13 02:21:00,
2013-05-12 22:26:00,46.0,32.9,30.23,WNW,293,0.0,0.0,60,0.00,,,0.40,WUHU216HW,2013-05-13 02:26:00,
2013-05-12 22:31:00,45.6,33.3,30.23,WNW,293,0.0,0.0,61,0.00,,,0.40,WUHU216HW,2013-05-13 02:31:00,
2013-05-12 22:36:00,45.5,32.8,30.23,WNW,293,0.0,0.0,61,0.00,,,0.40,WUHU216HW,2013-05-13 02:36:00,
2013-05-12 22:41:00,45.3,32.6,30.23,WNW,293,0.0,0.0,61,0.00,,,0.40,WUHU216HW,2013-05-13 02:41:00,
2013-05-12 22:46:00,45.1,32.8,30.23,WNW,293,0.0,0.0,62,0.00,,,0.40,WUHU216HW,2013-05-13 02:46:00,
2013-05-12 22:51:00,44.9,33.0,30.23,WNW,293,0.0,0.0,63,0.00,,,0.40,WUHU216HW,2013-05-13 02:51:00,
2013-05-12 22:56:00,44.7,32.9,30.23,WNW,293,0.0,0.0,63,0.00,,,0.40,WUHU216HW,2013-05-13 02:56:00,
2013-05-12 23:01:00,44.4,32.5,30.23,WNW,293,0.0,0.0,63,0.00,,,0.40,WUHU216HW,2013-05-13 03:01:00,
2013-05-12 23:06:00,44.2,32.7,30.23,WNW,293,0.0,0.0,64,0.00,,,0.40,WUHU216HW,2013-05-13 03:06:00,
2013-05-12 23:11:00,44.0,32.6,30.23,WNW,293,0.0,0.0,64,0.00,,,0.40,WUHU216HW,2013-05-13 03:11:00,
2013-05-12 23:16:00,43.7,32.2,30.23,WNW,293,0.0,0.0,64,0.00,,,0.40,WUHU216HW,2013-05-13 03:16:00,
2013-05-12 23:21:00,43.5,32.1,30.23,WNW,293,0.0,0.0,64,0.00,,,0.40,WUHU216HW,2013-05-13 03:21:00,
2013-05-12 23:26:00,43.3,32.3,30.23,WNW,293,0.0,0.0,65,0.00,,,0.40,WUHU216HW,2013-05-13 03:26:00,
2013-05-12 23:31:00,43.1,32.5,30.23,WNW,293,0.0,0.0,66,0.00,,,0.40,WUHU216HW,2013-05-13 03:31:00,
2013-05-12 23:36:00,42.9,32.3,30.23,WNW,293,0.0,0.0,66,0.00,,,0.40,WUHU216HW,2013-05-13 03:36:00,
2013-05-12 23:41:00,42.6,32.0,30.23,WNW,293,0.0,0.0,66,0.00,,,0.40,WUHU216HW,2013-05-13 03:41:00,
2013-05-12 23:46:00,42.4,31.8,30.23,WNW,293,0.0,0.0,66,0.00,,,0.40,WUHU216HW,2013-05-13 03:46:00,
2013-05-12 23:51:00,42.4,31.8,30.23,WNW,293,0.0,0.0,66,0.00,,,0.40,WUHU216HW,2013-05-13 03:51:00,
2013-05-12 23:56:00,42.2,32.0,30.23,WNW,293,0.0,0.0,67,0.00,,,0.40,WUHU216HW,2013-05-13 03:56:00,